{"data":{"norad_id":69305,"epoch":"2026-09-18T20:59:34.376352Z","epoch_age_seconds":169443,"freshness":"FRESH","line1":"1 69305U 26119K   26261.87470343  .00011136  00000+0  34686-3 0  9996","line2":"2 69305  97.2837 286.6256 0001123  86.9495 273.1876 15.33435396 18414","mean_motion":15.33435396,"eccentricity":0.0001123,"inclination_deg":97.2837,"raan_deg":286.6256,"arg_perigee_deg":86.9495,"mean_anomaly_deg":273.1876,"bstar":0.00034686,"rev_number":1841,"period_min":93.906792797158,"perigee_km":464.80320088173,"apogee_km":466.34029786684,"semimajor_km":6843.7087493743,"source":"CELESTRAK","updated_at":"2026-09-20T09:00:44.155724Z"}}